This is the latest recevied weather packets stored in our database for station/object WX4SGA. If no packets are shown the sender has not sent any weather packets the latest 10 day(s).
| Time | Temp. | Humidity | Pressure | Rain* | Wind** | Luminosity | Snow |
|---|---|---|---|---|---|---|---|
| 1777667038 | 19.44° C | 75% | 1011.9 hPa | 0 mm | - | 163 W/m² | - |
| 1777666735 | 20° C | 71% | 1012.2 hPa | 0 mm | - | 190 W/m² | - |
| 1777666431 | 20° C | 69% | 1012.2 hPa | 0 mm | - | 74 W/m² | - |
| 1777666128 | 21.11° C | 66% | 1011.9 hPa | 0 mm | - | 88 W/m² | - |
| 1777665825 | 21.11° C | 65% | 1011.9 hPa | 0 mm | - | 167 W/m² | - |
| 1777665523 | 21.11° C | 64% | 1011.9 hPa | 0 mm | - | 101 W/m² | - |
| 1777665218 | 21.67° C | 62% | 1011.9 hPa | 0 mm | - | 171 W/m² | - |
| 1777664915 | 21.67° C | 61% | 1011.9 hPa | 0 mm | - | 220 W/m² | - |
| 1777664611 | 21.67° C | 61% | 1012.2 hPa | 0 mm | - | 333 W/m² | - |
| 1777664307 | 21.67° C | 62% | 1012.5 hPa | 0 mm | - | 456 W/m² | - |
| 1777664006 | 21.11° C | 62% | 1012.5 hPa | 0 mm | - | 270 W/m² | - |
| 1777663703 | 21.11° C | 62% | 1012.5 hPa | 0 mm | - | 367 W/m² | - |
| 1777663400 | 21.67° C | 62% | 1012.9 hPa | 0 mm | - | 454 W/m² | - |
| 1777663097 | 20.56° C | 63% | 1012.9 hPa | 0 mm | - | 678 W/m² | - |
| 1777662794 | 20.56° C | 65% | 1012.9 hPa | 0 mm | - | 468 W/m² | - |
| 1777662491 | 21.11° C | 63% | 1012.9 hPa | 0 mm | - | 173 W/m² | - |
| 1777662187 | 21.67° C | 63% | 1012.9 hPa | 0 mm | - | 256 W/m² | - |
| 1777661882 | 21.67° C | 63% | 1012.9 hPa | 0 mm | - | 248 W/m² | - |
| 1777661579 | 22.22° C | 61% | 1012.9 hPa | 0 mm | - | 162 W/m² | - |
| 1777661274 | 22.22° C | 59% | 1012.5 hPa | 0 mm | - | 210 W/m² | - |
| 1777660970 | 22.78° C | 57% | 1012.5 hPa | 0 mm | - | 358 W/m² | - |
| 1777660666 | 22.22° C | 59% | 1012.5 hPa | 0 mm | - | 492 W/m² | - |
| 1777660364 | 22.22° C | 58% | 1012.5 hPa | 0 mm | - | 501 W/m² | - |
| 1777660059 | 22.22° C | 58% | 1012.5 hPa | 0 mm | - | 531 W/m² | - |
| 1777659757 | 22.22° C | 57% | 1012.5 hPa | 0 mm | - | 527 W/m² | - |
* Rain latest hour (hover to see other rain measurements)
** Current wind speed in m/s (hover to see current wind gust speed)